Flag for Germany Weather past 2 weeks in Monheim am Rhein, North Rhine-Westphalia, Germany

Now
61 °F

Sunny.


Feels Like: 61 °F
Forecast: 42 / 51 °F
Wind: 8 mph from West

Location: Duesseldorf


UV Index: 0 (Low)

Visibility: 10 mi


Pressure: 29.95 "Hg

Humidity: 31%

Dew point: 30 °F

Location of Monheim am RheinLocation

Historic Weather in Monheim am Rhein

°F

Monheim am Rhein temperature yesterday

Maximum temperature yesterday: 59 °F (at 3:20 PM)
Minimum temperature yesterday: 30 °F (at 4:50 AM)
Average temperature yesterday: 47 °F

Past Weeks' High & Low Weather Summary

 TemperatureHumidityPressure
High72 °F (Apr 3, 1:50 PM)94% (Apr 5, 5:20 AM)30.45 "Hg (Apr 5, 5:20 AM)
Low30 °F (Apr 16, 4:50 AM)24% (Apr 17, 4:50 PM)29.59 "Hg (Apr 3, 1:50 PM)
Average53 °F66%30.05 "Hg
* Reported Apr 2 7:20 PM — Apr 17 7:50 PM, Monheim am Rhein, Weather by CustomWeather, © 2014

Note: Actual official high and low records may vary slightly from our data, if they occured in-between our weather recording intervals... More about our weather records

Advertising

Historic Weather Conditions — Data for Previous 24 hours

 ConditionsComfort  
Time TempWeatherWind HumidityBarometerVisibility
7:50 PM
Apr 17
61 °FSunny.6 mph31%29.95 "Hg10 mi
6:50 PM63 °FSunny.10 mph30%29.95 "Hg10 mi
6:20 PM63 °FSunny.10 mph27%29.98 "Hg10 mi
5:50 PM63 °FSunny.14 mph27%29.98 "Hg10 mi
5:20 PM64 °FSunny.14 mph26%29.98 "Hg10 mi
4:50 PM64 °FSunny.14 mph24%30.01 "Hg10 mi
4:20 PM64 °FSunny.10 mph28%30.04 "Hg10 mi
3:50 PM63 °FPassing clouds.9 mph30%30.04 "HgN/A
3:20 PM63 °FSunny.9 mph30%30.07 "Hg10 mi
2:50 PM63 °FSunny.9 mph30%30.09 "Hg10 mi
2:20 PM61 °FSunny.13 mph34%30.09 "Hg10 mi
1:50 PM61 °FSunny.9 mph31%30.12 "Hg10 mi
1:20 PM59 °FSunny.13 mph39%30.15 "Hg10 mi
12:50 PM59 °FSunny.13 mph36%30.15 "Hg10 mi
12:20 PM59 °FSunny.13 mph34%30.18 "Hg10 mi
11:50 AM57 °FSunny.14 mph36%30.18 "Hg10 mi
11:20 AM55 °FSunny.12 mph38%30.21 "Hg10 mi
10:50 AM55 °FSunny.12 mph44%30.21 "Hg10 mi
10:20 AM54 °FSunny.12 mph44%30.24 "Hg10 mi
9:20 AM50 °FSunny.10 mph50%30.24 "Hg10 mi
8:50 AM48 °FSunny.9 mph54%30.24 "Hg10 mi
8:20 AM46 °FSunny.12 mph57%30.24 "Hg10 mi
7:50 AM45 °FSunny.12 mph57%30.27 "Hg10 mi
7:20 AM43 °FClear.14 mph61%30.27 "Hg10 mi
6:50 AM43 °FClear.10 mph61%30.27 "Hg10 mi
6:20 AM45 °FClear.12 mph57%30.27 "Hg10 mi
5:50 AM45 °FClear.10 mph57%30.27 "Hg10 mi
5:20 AM45 °FClear.12 mph57%30.27 "Hg10 mi
4:50 AM45 °FClear.10 mph57%30.27 "Hg10 mi
4:20 AM45 °FClear.8 mph57%30.30 "Hg10 mi
3:50 AM45 °FClear.8 mph57%30.30 "Hg10 mi
3:20 AM45 °FClear.9 mph57%30.30 "Hg10 mi
2:50 AM46 °FClear.8 mph53%30.30 "Hg10 mi
2:20 AM46 °FClear.10 mph53%30.30 "Hg10 mi
1:50 AM48 °FClear.8 mph50%30.33 "Hg10 mi
1:20 AM48 °FClear.9 mph50%30.33 "Hg10 mi
12:50 AM48 °FClear.10 mph50%30.33 "Hg10 mi
12:20 AM50 °FClear.10 mph47%30.33 "Hg10 mi
11:50 PM
Apr 16
50 °FClear.9 mph50%30.33 "Hg10 mi
11:20 PM46 °FClear.8 mph62%30.33 "Hg10 mi
10:50 PM46 °FClear.3 mph66%30.33 "Hg10 mi
10:20 PM48 °FClear.3 mph58%30.33 "Hg10 mi
9:50 PM50 °FClear.7 mph54%30.33 "Hg10 mi
9:20 PM52 °FSunny.6 mph50%30.33 "Hg10 mi
8:50 PM52 °FSunny.3 mph50%30.33 "Hg10 mi
8:20 PM55 °FSunny.5 mph41%30.33 "Hg10 mi
Weather by CustomWeather, © 2014

See weather overview